Home > Weather > Ganderkesee > Past weeks

Flag for Germany Past Weather in Ganderkesee, Lower Saxony, Germany — Yesterday and Last 2 Weeks

Now
59 °F

Passing clouds.


Feels Like: 59 °F
Forecast: 56 / 64 °F
Wind: 5 mph from South

Location: Bremen Airport

Current Time: Jun 30, 2016 at 1:44:55 AM

Latest Report: Jun 30, 2016 at 1:20 AM


Visibility: N/A

Pressure: 29.86 "Hg

Humidity: 82%

Dew Point: 54 °F

Location of GanderkeseeLocation

Past Weather in Ganderkesee — Graph

°F

Ganderkesee Temperature Yesterday

Maximum temperature yesterday: 68 °F (at 3:50 PM)
Minimum temperature yesterday: 57 °F (at 3:50 AM)
Average temperature yesterday: 62 °F

High & Low Weather Summary for the Past Weeks

 TemperatureHumidityPressure
High88 °F (Jun 23, 2:50 PM)100% (Jun 15, 12:20 AM)30.21 "Hg (Jun 15, 12:20 AM)
Low46 °F (Jun 20, 1:50 AM)43% (Jun 28, 3:20 PM)29.47 "Hg (Jun 15, 12:20 AM)
Average63 °F80%29.93 "Hg
* Reported Jun 15 12:20 AM — Jun 30 12:20 AM, Ganderkesee, Weather by CustomWeather, © 2016

Note: Actual official high and low records may vary slightly from our data, if they occured in-between our weather recording intervals... More about our weather records

Advertising

Ganderkesee Weather History for the Previous 24 Hours

Scroll right to see more
 ConditionsComfort  
Time TempWeatherWind HumidityBarometerVisibility
12:20 AM
Thu, Jun 30
61 °FLight rain. Passing clouds.9 mph77%29.89 "HgN/A
11:50 PM
Wed, Jun 29
61 °FLight rain. Passing clouds.6 mph77%29.86 "HgN/A
11:20 PM61 °FClear.6 mph77%29.86 "Hg10 mi
10:50 PM61 °FSunny.6 mph77%29.86 "Hg10 mi
10:20 PM61 °FSunny.6 mph83%29.86 "Hg10 mi
9:50 PM61 °FSunny.5 mph88%29.86 "Hg10 mi
9:20 PM61 °FScattered clouds.6 mph83%29.86 "HgN/A
8:50 PM63 °FPartly sunny.5 mph77%29.86 "HgN/A
8:20 PM64 °FScattered clouds.5 mph73%29.86 "HgN/A
7:50 PM66 °FScattered clouds.9 mph64%29.86 "HgN/A
7:20 PM66 °FScattered clouds.8 mph64%29.86 "HgN/A
6:50 PM64 °FBroken clouds.9 mph73%29.86 "HgN/A
6:20 PM64 °FSprinkles. Broken clouds.8 mph73%29.86 "HgN/A
5:50 PM64 °FScattered showers. Broken clouds.8 mph73%29.86 "HgN/A
5:20 PM64 °FScattered showers. Broken clouds.15 mph68%29.86 "HgN/A
4:50 PM66 °FPartly sunny.13 mph73%29.86 "HgN/A
4:20 PM64 °FScattered showers. Broken clouds.15 mph73%29.86 "HgN/A
3:50 PM68 °FScattered showers. Broken clouds.13 mph64%29.86 "HgN/A
3:20 PM66 °FBroken clouds.16 mph64%29.86 "HgN/A
2:50 PM66 °FBroken clouds.18 mph68%29.86 "HgN/A
2:20 PM66 °FBroken clouds.17 mph68%29.83 "HgN/A
1:50 PM64 °FBroken clouds.16 mph73%29.83 "HgN/A
1:20 PM66 °FBroken clouds.17 mph73%29.83 "HgN/A
12:50 PM64 °FBroken clouds.16 mph78%29.83 "HgN/A
12:20 PM63 °FBroken clouds.15 mph77%29.83 "HgN/A
11:50 AM59 °FSprinkles. Broken clouds.21 mph88%29.83 "HgN/A
11:20 AM63 °FBroken clouds.16 mph77%29.80 "HgN/A
10:20 AM63 °FScattered clouds.17 mph73%29.80 "HgN/A
9:50 AM64 °FPartly sunny.16 mph78%29.80 "HgN/A
9:20 AM63 °FPartly sunny.14 mph83%29.80 "HgN/A
8:50 AM64 °FPassing clouds.9 mph88%29.80 "HgN/A
8:20 AM61 °FScattered clouds.10 mph94%29.80 "HgN/A
7:50 AM59 °FScattered clouds.7 mph94%29.77 "HgN/A
7:20 AM57 °FScattered clouds.6 mph100%29.77 "HgN/A
6:50 AM57 °FPartly sunny.6 mph100%29.77 "HgN/A
6:20 AM57 °FPartly sunny.2 mph100%29.77 "HgN/A
5:50 AM57 °FRain. Overcast.3 mph100%29.77 "Hg4 mi
5:20 AM57 °FLight rain. Overcast.3 mph94%29.80 "HgN/A
4:50 AM57 °FLight rain. Overcast.8 mph94%29.80 "HgN/A
4:20 AM57 °FLight rain. Passing clouds.10 mph94%29.80 "HgN/A
3:50 AM57 °FLight rain. Passing clouds.7 mph82%29.80 "HgN/A
3:20 AM59 °FPassing clouds.10 mph77%29.80 "HgN/A
2:50 AM59 °FPassing clouds.9 mph77%29.80 "HgN/A
2:20 AM59 °FPartly cloudy.10 mph77%29.80 "HgN/A
1:50 AM61 °FPartly cloudy.12 mph68%29.83 "HgN/A
1:20 AM61 °FPartly cloudy.10 mph68%29.83 "HgN/A
Weather by CustomWeather, © 2016

See weather overviewHow to use our weather pages